sat.trackr.live / text

‹ back to catalog

STARLINK-33733

NORAD 63435 · 2025-069C

PAYLOAD ACTIVE UNKNOWN

§ Identity

Operator
Country
US
Launch date
2025-04-04
Launch site
AFWTR
Launch vehicle
Mass (kg)
RCS (m²)

Purposes: comms

External: N2YO · Heavens-Above · Gunter

§ Orbital elements

Epoch: 2026-05-25T03:19:28.718976Z

Period
93.38 min
Inclination
53.1577°
Eccentricity
0.0001415
Mean motion
15.42052583 rev/d
Perigee alt
439.1 km
Apogee alt
441.0 km
Semi-major
6,818.2 km
B*
5.6717e-3
RAAN
144.9494°
Arg perigee
120.7378°
Mean anomaly
239.3767°
Rev number
6,514

§ Raw data

STARLINK-337331 63435U 25069C   26145.13852684  .00253825  00000+0  56717-2 0  99902 63435  53.1577 144.9494 0001415 120.7378 239.3767 15.42052583 65143

JSON: /api/v1/satellites/63435 · /tle

For live sub-satellite position, see the globe view (requires WebGL).

§ Visibility from observer

Set your observer location to see the next 7 days of passes ≥ 10°. The values pass through the URL so the page stays shareable.

No JS? Fill the form by hand. The geolocation button needs JavaScript.